DateTimeUTC,F1_A11,F1_S11,BsB_S11,BsG_S11,BsR_S11,BbsB_S11,BbsG_S11,BbsR_S11,BaB_A11,BaG_A11,BaR_A11,Tu_S11,T_S11,Uu_S11,U_S11,P_S11,T1_A11
2021-09-04T15:00:00Z,00000200,21000000,,,,,,,0000.05,0000.06,-000.21,19.2,25.6,00.6,00.4,0666.2,31.1
2021-09-04T15:01:00Z,00000200,21000000,,,,,,,0000.19,-000.12,-000.02,19.2,25.7,00.5,00.3,0666.2,31.1
2021-09-04T15:02:00Z,00000200,21000000,,,,,,,-000.14,0000.30,0000.06,19.2,25.7,00.4,00.2,0666.1,31.1
2021-09-04T15:03:00Z,00000200,61000000,,,,,,,0000.60,0000.37,0000.32,19.2,25.7,00.3,00.2,0666.1,31.1
2021-09-04T15:04:00Z,00000200,41000000,0005.12,0003.18,0002.03,0000.79,0000.48,0000.29,0001.23,0001.32,0000.73,19.4,25.6,00.7,00.5,0667.1,31.1
2021-09-04T15:05:00Z,00000200,01000000,0003.87,0003.19,0002.17,0000.57,0000.40,0000.38,0000.70,0000.66,0000.90,19.5,25.6,00.7,00.5,0667.2,31.1
2021-09-04T15:06:00Z,00000200,01000000,0005.26,0003.74,0002.14,0000.23,0000.49,0000.38,0001.17,0000.57,0000.75,19.4,25.6,00.6,00.4,0667.1,31.1
2021-09-04T15:07:00Z,00000200,01000000,0004.99,0003.46,0002.53,0000.68,0000.19,0000.23,0000.47,0000.72,0000.45,19.4,25.5,00.7,00.5,0667.1,31.1
2021-09-04T15:08:00Z,00000200,01000000,0005.01,0003.68,0002.36,0000.96,0000.46,0000.42,0001.10,0001.28,0000.84,19.4,25.5,00.7,00.5,0667.1,31.1
2021-09-04T15:09:00Z,00000200,01000000,0004.81,0003.76,0002.09,0000.32,0000.57,0000.30,0000.96,0000.67,0000.54,19.4,25.5,00.7,00.5,0667.1,31.1
2021-09-04T15:10:00Z,00000200,01000000,0004.93,0003.60,0002.63,0000.98,0000.30,0000.44,0001.23,0000.77,0000.64,19.4,25.5,00.6,00.4,0667.1,31.1
2021-09-04T15:11:00Z,00000200,01000000,0004.96,0003.86,0002.58,0000.59,0000.36,0000.27,0001.05,0000.98,0000.83,19.4,25.5,00.7,00.5,0667.1,31.1
2021-09-04T15:12:00Z,00000200,01000000,0005.11,0003.45,0002.05,0001.10,0000.56,0000.22,0000.82,0000.88,0000.64,19.4,25.5,00.7,00.5,0667.1,31.1
2021-09-04T15:13:00Z,00000200,01000000,0004.88,0003.59,0002.38,0000.35,0000.68,0000.31,0001.05,0001.12,0001.13,19.4,25.5,00.8,00.5,0667.1,31.1
2021-09-04T15:14:00Z,00000200,01000000,0004.37,0003.55,0002.51,0000.58,0000.57,0000.56,0000.93,0000.91,0000.47,19.5,25.6,00.7,00.5,0667.1,31.1
2021-09-04T15:15:00Z,00000200,01000000,0004.28,0003.58,0002.22,0000.14,0000.92,0000.16,0001.00,0000.57,0000.38,19.6,25.6,00.8,00.5,0667.1,31.1
2021-09-04T15:16:00Z,00000200,01000000,0004.28,0003.32,0001.99,0000.89,0000.12,0000.46,0000.90,0000.70,0000.61,19.6,25.6,00.7,00.5,0667.1,31.1
2021-09-04T15:17:00Z,00000200,01000000,0004.45,0003.52,0001.94,0000.52,0000.23,0000.21,0000.82,0000.93,0000.88,19.6,25.6,00.6,00.4,0667.1,31.1
2021-09-04T15:18:00Z,00000200,01000000,0004.31,0003.35,0002.56,0000.42,0000.16,0000.51,0001.08,0001.06,0000.45,19.6,25.6,00.7,00.5,0667.1,31.1
2021-09-04T15:19:00Z,00000200,01000000,0005.77,0003.85,0002.67,0000.86,0000.67,0000.41,0000.67,0000.98,0001.32,19.6,25.6,00.7,00.5,0667.1,31.1
2021-09-04T15:20:00Z,00000200,01000000,0005.47,0003.77,0002.38,0001.35,0000.55,0000.06,0001.22,0000.70,0000.70,19.5,25.6,00.7,00.5,0667.1,31.1
2021-09-04T15:21:00Z,00000200,01000000,0004.61,0003.93,0002.75,0000.78,0000.61,0000.15,0001.05,0000.91,0000.48,19.5,25.6,00.7,00.5,0667.2,31.1
2021-09-04T15:22:00Z,00000200,01000000,0004.73,0003.83,0002.53,0001.08,0000.25,0000.35,0000.95,0001.24,0000.87,19.5,25.6,00.7,00.5,0667.1,31.1
2021-09-04T15:23:00Z,00000200,01000000,0005.11,0003.18,0002.27,0000.43,0000.50,0000.22,0000.76,0000.80,0000.86,19.5,25.6,00.7,00.5,0667.2,31.1
2021-09-04T15:24:00Z,00000200,01000000,0004.31,0003.58,0002.29,0000.70,0000.58,0000.20,0000.94,0001.11,0000.50,19.5,25.6,00.6,00.4,0667.2,31.1
2021-09-04T15:25:00Z,00000200,01000000,0004.95,0003.39,0002.58,0000.87,0000.68,0000.63,0001.13,0000.48,0000.60,19.5,25.6,00.7,00.5,0667.2,31.1
2021-09-04T15:26:00Z,00000200,01000000,0004.90,0003.58,0002.58,-000.21,0000.41,0000.39,0000.72,0000.89,0000.66,19.5,25.6,00.6,00.4,0667.2,31.1
2021-09-04T15:27:00Z,00000200,01000000,0004.98,0003.20,0002.02,0000.70,0000.44,0000.29,0001.08,0000.55,0000.66,19.5,25.6,00.6,00.4,0667.2,31.1
2021-09-04T15:28:00Z,00000200,01000000,0005.19,0004.15,0002.54,0001.15,0000.26,0000.52,0001.20,0001.42,0000.77,19.5,25.6,00.5,00.4,0667.2,31.1
2021-09-04T15:29:00Z,00000200,01000000,0005.02,0003.58,0002.32,0000.11,0000.57,0000.48,0000.86,0000.68,0000.90,19.5,25.6,00.5,00.4,0667.2,31.1
2021-09-04T15:30:00Z,00000200,01000000,0005.62,0004.02,0002.73,0000.16,0000.17,0000.15,0001.07,0001.03,0000.56,19.5,25.6,00.6,00.4,0667.2,31.1
2021-09-04T15:31:00Z,00000200,01000000,0004.30,0003.96,0002.54,0001.04,0000.65,0000.28,0000.74,0000.82,0000.80,19.5,25.5,00.6,00.4,0667.2,31.1
2021-09-04T15:32:00Z,00000200,01000000,0004.89,0003.83,0002.84,0001.14,0000.09,0000.57,0001.30,0001.17,0000.98,19.4,25.5,00.6,00.4,0667.2,31.1
2021-09-04T15:33:00Z,00000200,01000000,0005.16,0003.48,0002.67,0001.09,0000.63,0000.15,0000.83,0000.92,0000.60,19.4,25.5,00.6,00.4,0667.2,31.1
2021-09-04T15:34:00Z,00000200,01000000,0005.34,0003.89,0002.64,0000.13,0000.45,0000.26,0000.91,0000.73,0000.19,19.4,25.5,00.6,00.4,0667.2,31.1
2021-09-04T15:35:00Z,00000200,01000000,0004.87,0003.56,0002.55,0000.76,0000.58,0000.05,0000.97,0000.93,0001.26,19.4,25.5,00.5,00.4,0667.2,31.1
2021-09-04T15:36:00Z,00000200,01000000,0004.76,0003.64,0002.67,0000.59,0000.63,0000.23,0000.77,0000.64,0000.58,19.4,25.5,00.4,00.3,0667.2,31.1
2021-09-04T15:37:00Z,00000200,01000000,0004.75,0003.43,0002.46,0000.25,0000.37,0000.30,0001.10,0000.72,0000.82,19.4,25.5,00.4,00.2,0667.2,31.1
2021-09-04T15:38:00Z,00000200,01000000,0005.09,0003.63,0002.31,0000.51,0000.63,0000.46,0000.87,0001.25,0000.27,19.4,25.5,00.4,00.3,0667.2,31.1
2021-09-04T15:39:00Z,00000200,01000000,0005.09,0004.16,0002.49,0000.61,0000.57,0000.46,0000.95,0000.65,0000.99,19.4,25.5,00.5,00.3,0667.2,31.1
2021-09-04T15:40:00Z,00000200,01000000,0004.96,0003.71,0002.59,0000.53,0000.80,0000.37,0001.18,0001.34,0000.73,19.4,25.5,00.4,00.3,0667.2,31.1
2021-09-04T15:41:00Z,00000200,01000000,0003.81,0003.61,0002.17,0000.86,0000.70,0000.26,0001.17,0001.02,0000.80,19.4,25.5,00.4,00.3,0667.2,31.1
2021-09-04T15:42:00Z,00000200,01000000,0004.50,0004.05,0002.31,0001.02,0000.80,0000.36,0001.11,0001.05,0001.10,19.4,25.5,00.4,00.3,0667.2,31.0
2021-09-04T15:43:00Z,00000200,01000000,0005.20,0003.81,0002.90,0000.95,0000.52,0000.48,0001.28,0001.06,0000.74,19.4,25.5,00.5,00.3,0667.1,31.1
2021-09-04T15:44:00Z,00000200,01000000,0005.22,0004.08,0002.72,0001.00,0000.88,0000.30,0000.88,0001.08,0000.53,19.5,25.6,00.5,00.3,0667.1,31.1
2021-09-04T15:45:00Z,00000200,01000000,0004.67,0003.83,0002.68,0000.81,0000.74,0000.57,0001.22,0000.81,0000.67,19.6,25.6,00.4,00.3,0667.1,31.1
2021-09-04T15:46:00Z,00000200,01000000,0005.02,0004.15,0002.45,0000.63,0000.40,0000.33,0001.19,0001.04,0001.24,19.6,25.6,00.5,00.3,0667.1,31.1
2021-09-04T15:47:00Z,00000200,01000000,0004.77,0004.20,0002.63,0000.54,0000.72,0000.14,0001.09,0001.00,0000.59,19.6,25.6,00.5,00.3,0667.1,31.1
2021-09-04T15:48:00Z,00000200,01000000,0005.18,0004.60,0002.95,0001.09,0000.58,0000.42,0000.85,0001.21,0000.79,19.7,25.7,00.5,00.3,0667.1,31.1
2021-09-04T15:49:00Z,00000200,01000000,0005.30,0004.26,0003.01,0001.06,0000.57,0000.17,0001.45,0001.23,0001.13,19.6,25.6,00.5,00.4,0667.1,31.1
2021-09-04T15:50:00Z,00000200,01000000,0005.39,0004.43,0003.07,0000.48,0000.61,0000.36,0001.23,0001.16,0000.61,19.6,25.6,00.6,00.4,0667.1,31.1
2021-09-04T15:51:00Z,00000200,01000000,0005.55,0004.30,0003.18,0000.34,0000.27,0000.69,0001.31,0000.93,0001.13,19.6,25.6,00.4,00.3,0667.1,31.1
2021-09-04T15:52:00Z,00000200,01000000,0004.95,0004.55,0002.70,0000.54,0000.29,0000.44,0001.11,0001.15,0000.71,19.6,25.6,00.5,00.3,0667.1,31.1
2021-09-04T15:53:00Z,00000200,01000000,0005.85,0004.15,0003.11,0000.64,0000.74,0000.75,0001.22,0001.14,0000.95,19.6,25.6,00.5,00.3,0667.1,31.1
2021-09-04T15:54:00Z,00000200,01000000,0005.04,0004.39,0003.00,0000.55,0000.34,0000.45,0001.04,0000.89,0000.76,19.6,25.6,00.5,00.4,0667.1,31.1
2021-09-04T15:55:00Z,00000200,01000000,0005.69,0004.30,0003.02,0000.04,0000.24,0000.78,0001.08,0000.97,0000.82,19.5,25.6,00.5,00.4,0667.1,31.1
2021-09-04T15:56:00Z,00000200,01000000,0005.50,0004.32,0003.16,0000.63,0000.90,0000.22,0000.77,0001.15,0000.89,19.5,25.6,00.5,00.3,0667.1,31.1
2021-09-04T15:57:00Z,00000200,41000000,,,,,,,0000.88,0000.35,0000.63,19.6,25.7,,00.0,0667.1,31.1
2021-09-04T15:58:00Z,00000200,61000000,,,,,,,-000.10,-000.08,-000.41,19.4,25.7,00.4,00.2,0666.1,31.1
2021-09-04T15:59:00Z,00000200,21000000,,,,,,,0000.01,-000.05,0000.01,19.4,25.8,00.3,00.2,0666.1,31.1
